Location: Schommer Observatory
(40.5200°N, 74.4500°W)
Time: 06:01:25
(UTC-05:00)

Tiangong 2 - Pass Details

Date: 15 October 2017
Orbit: 387 x 389 km, 42.8° (Epoch: 18 December)

Event Time Altitude Azimuth Distance (km) Brightness Sun altitude
Exits shadow 05:36:34 50° 332° (NNW) 504 1.4 -18.3°
Maximum altitude 05:36:56 54° 2° (N) 479 1.5 -18.3°
Drops below altitude 10° 05:40:05 10° 81° (E) 1,422 5.2 -17.7°
Sets 05:42:12 0° 86° (E) 2,278 6.8 -17.3°
